NORTHERN QUEENS  -  Heat Advisory Heat Advisory     Flash Flood Watch Flash Flood Watch     Rip Current Statement Rip Current Statement        SOUTHERN QUEENS  -  Heat Advisory Heat Advisory     Flash Flood Watch Flash Flood Watch     Rip Current Statement Rip Current Statement        NORTHERN NASSAU  -  Flash Flood Watch Flash Flood Watch     Rip Current Statement Rip Current Statement        SOUTHERN NASSAU  -  Flash Flood Watch Flash Flood Watch     Rip Current Statement Rip Current Statement        NORTHEAST SUFFOLK  -  Rip Current Statement Rip Current Statement        NORTHWEST SUFFOLK  -  Rip Current Statement Rip Current Statement        SOUTHEAST SUFFOLK  -  Rip Current Statement Rip Current Statement        SOUTHWEST SUFFOLK  -  Rip Current Statement Rip Current Statement      

Active alerts

Northern Queens
  Details for Northern Queens Heat Advisory  +2 additional alerts
Southern Queens
  Details for Southern Queens Heat Advisory  +2 additional alerts
Northern Nassau
  Details for Northern Nassau Flash Flood Watch  +1 additional alert
Southern Nassau
  Details for Southern Nassau Flash Flood Watch  +1 additional alert
Northwest Suffolk
  Details for Northwest Suffolk Rip Current Statement
Southwest Suffolk
  Details for Southwest Suffolk Rip Current Statement
Northeast Suffolk
  Details for Northeast Suffolk Rip Current Statement
Southeast Suffolk
  Details for Southeast Suffolk Rip Current Statement


WXM80 ListenWXM80 Stop

You find our weather info also at:

UK Metoffice

WeatherCloud

Weather Underground

Northeastern Weather Network

AWEKAS

Citizen Weather Observer Program (CWOP)

HAMweather, WeatherForYou, PWS Weather


Weather Underground History page Text

Daily Summary for January 6, 2016 Units:  English    Metric   Both
« Previous Day
Next Day »
Daily Weekly Monthly Yearly Custom
  High: Low: Average:
Temperature: 41.4 °F 19.1 °F 29.6 °F
Dew Point: 19.3 °F 3.9 °F 14.1 °F
Humidity: 83 % 21 % 56 %
Wind Speed: 6.1 mph 0.0 mph 1.9 mph
Wind Gust: 11.5 mph - -
Wind:- - SW
Pressure: 30.57 in 30.38 in -
Precipitation: 0.00 in    
Historical Graphs
 
 
Tabular Data for January 6, 2016
Time Temperature Dew Point Pressure Wind Wind Speed Wind Gust Humidity Rainfall Rate (Hourly)
00:04 23.9 °F 14.9 °F 30.57 in West 0.3 mph 1.2 mph 68 % 0.00 in
00:09 23.9 °F 15.2 °F 30.57 in WNW 1.3 mph 2.3 mph 69 % 0.00 in
00:14 23.9 °F 15.2 °F 30.57 in WNW 0.2 mph 1.2 mph 69 % 0.00 in
00:19 23.9 °F 15.2 °F 30.57 in WNW 1.7 mph 3.5 mph 69 % 0.00 in
00:24 23.6 °F 14.9 °F 30.56 in West 1.5 mph 2.3 mph 69 % 0.00 in
00:29 23.4 °F 14.7 °F 30.56 in WSW 0.3 mph 3.5 mph 69 % 0.00 in
00:34 23.2 °F 14.9 °F 30.56 in WSW 1.0 mph 2.3 mph 70 % 0.00 in
00:40 22.7 °F 14.7 °F 30.56 in WSW 0.3 mph 2.3 mph 71 % 0.00 in
00:45 22.4 °F 14.7 °F 30.57 in WSW 1.3 mph 2.3 mph 72 % 0.00 in
00:50 22.0 °F 14.7 °F 30.57 in WSW 0.7 mph 3.5 mph 73 % 0.00 in
00:55 21.8 °F 14.5 °F 30.56 in WSW 0.6 mph 2.3 mph 73 % 0.00 in
01:00 21.6 °F 14.6 °F 30.56 in WSW 1.2 mph 2.3 mph 74 % 0.00 in
01:05 21.4 °F 14.7 °F 30.56 in WSW 1.4 mph 3.5 mph 75 % 0.00 in
01:10 21.3 °F 14.6 °F 30.57 in Calm   1.2 mph 75 % 0.00 in
01:15 21.2 °F 14.5 °F 30.56 in WSW 0.7 mph 1.2 mph 75 % 0.00 in
01:20 21.0 °F 14.6 °F 30.56 in WSW 0.2 mph 1.2 mph 76 % 0.00 in
01:25 20.9 °F 14.5 °F 30.56 in WSW 0.5 mph 1.2 mph 76 % 0.00 in
01:31 20.8 °F 14.4 °F 30.56 in WSW 1.7 mph 3.5 mph 76 % 0.00 in
01:36 20.7 °F 14.6 °F 30.56 in WSW 0.9 mph 2.3 mph 77 % 0.00 in
01:41 20.6 °F 14.2 °F 30.56 in WSW 1.0 mph 2.3 mph 76 % 0.00 in
01:46 20.5 °F 14.4 °F 30.56 in WSW 0.6 mph 2.3 mph 77 % 0.00 in
01:51 20.5 °F 14.4 °F 30.56 in WSW 1.1 mph 3.5 mph 77 % 0.00 in
01:56 20.4 °F 14.6 °F 30.56 in WSW 1.2 mph 2.3 mph 78 % 0.00 in
02:01 20.4 °F 14.6 °F 30.56 in WSW 1.1 mph 2.3 mph 78 % 0.00 in
02:06 20.4 °F 14.6 °F 30.56 in WSW 0.6 mph 2.3 mph 78 % 0.00 in
02:11 20.3 °F 14.5 °F 30.56 in WSW 0.7 mph 1.2 mph 78 % 0.00 in
02:16 20.3 °F 14.5 °F 30.56 in WSW 0.7 mph 2.0 mph 78 % 0.00 in
02:22 20.2 °F 14.4 °F 30.57 in WSW 0.6 mph 1.2 mph 78 % 0.00 in
02:27 20.2 °F 14.4 °F 30.57 in WSW 1.7 mph 2.3 mph 78 % 0.00 in
02:32 20.1 °F 14.3 °F 30.57 in WSW 0.3 mph 1.2 mph 78 % 0.00 in
02:37 20.0 °F 14.5 °F 30.57 in SW 1.7 mph 2.3 mph 79 % 0.00 in
02:42 20.0 °F 14.5 °F 30.56 in SW 0.7 mph 2.3 mph 79 % 0.00 in
02:47 20.0 °F 14.5 °F 30.56 in SW 1.9 mph 3.5 mph 79 % 0.00 in
02:52 20.0 °F 14.5 °F 30.56 in SW 1.4 mph 3.5 mph 79 % 0.00 in
02:57 20.2 °F 14.7 °F 30.57 in SW 1.1 mph 2.3 mph 79 % 0.00 in
03:02 20.3 °F 14.8 °F 30.56 in SW 1.8 mph 3.5 mph 79 % 0.00 in
03:07 20.3 °F 14.8 °F 30.55 in SW 1.4 mph 2.0 mph 79 % 0.00 in
03:13 20.4 °F 14.9 °F 30.55 in SW 1.0 mph 2.3 mph 79 % 0.00 in
03:18 20.4 °F 14.6 °F 30.55 in SW 0.9 mph 2.3 mph 78 % 0.00 in
03:23 20.4 °F 14.6 °F 30.55 in SW 1.4 mph 3.5 mph 78 % 0.00 in
03:28 20.4 °F 14.6 °F 30.55 in SW 0.2 mph 2.0 mph 78 % 0.00 in
03:33 20.4 °F 14.6 °F 30.55 in SW 1.2 mph 2.3 mph 78 % 0.00 in
03:38 20.4 °F 14.3 °F 30.55 in SW 1.0 mph 1.2 mph 77 % 0.00 in
03:43 20.4 °F 14.3 °F 30.55 in SW 0.3 mph 1.2 mph 77 % 0.00 in
03:48 20.4 °F 14.3 °F 30.54 in SW 0.6 mph 1.2 mph 77 % 0.00 in
03:53 20.4 °F 14.6 °F 30.55 in SW 1.2 mph 2.3 mph 78 % 0.00 in
03:58 20.3 °F 14.5 °F 30.55 in SW 1.9 mph 2.3 mph 78 % 0.00 in
04:04 20.3 °F 14.2 °F 30.55 in SW 1.3 mph 2.3 mph 77 % 0.00 in
04:09 20.2 °F 14.4 °F 30.55 in SW 1.2 mph 2.3 mph 78 % 0.00 in
04:14 20.2 °F 14.4 °F 30.55 in SW 2.0 mph 3.5 mph 78 % 0.00 in
04:19 20.1 °F 14.3 °F 30.55 in SW 1.4 mph 2.3 mph 78 % 0.00 in
04:24 20.1 °F 14.3 °F 30.55 in SW 1.2 mph 2.3 mph 78 % 0.00 in
04:29 20.0 °F 14.5 °F 30.55 in SW 1.2 mph 2.3 mph 79 % 0.00 in
04:34 19.9 °F 14.4 °F 30.54 in SW 1.6 mph 3.5 mph 79 % 0.00 in
04:39 19.8 °F 14.3 °F 30.54 in SW 1.2 mph 2.3 mph 79 % 0.00 in
04:44 19.8 °F 14.3 °F 30.54 in SW 0.8 mph 2.3 mph 79 % 0.00 in
04:50 19.7 °F 14.5 °F 30.54 in SW 0.9 mph 2.3 mph 80 % 0.00 in
04:55 19.7 °F 14.5 °F 30.54 in SW 1.5 mph 3.5 mph 80 % 0.00 in
05:00 19.7 °F 14.5 °F 30.54 in SW 0.6 mph 2.3 mph 80 % 0.00 in
05:15 19.8 °F 14.6 °F 30.55 in SW 0.7 mph 2.3 mph 80 % 0.00 in
05:20 19.8 °F 14.6 °F 30.55 in SW 0.8 mph 1.2 mph 80 % 0.00 in
05:25 19.8 °F 14.6 °F 30.55 in SW 0.4 mph 1.2 mph 80 % 0.00 in
05:30 19.8 °F 14.6 °F 30.55 in SW 0.1 mph 1.0 mph 80 % 0.00 in
05:35 19.8 °F 14.6 °F 30.55 in SW 0.6 mph 2.3 mph 80 % 0.00 in
05:41 19.8 °F 14.6 °F 30.55 in SW 0.8 mph 1.2 mph 80 % 0.00 in
05:46 19.7 °F 14.5 °F 30.55 in SW 0.9 mph 2.0 mph 80 % 0.00 in
05:51 19.7 °F 14.2 °F 30.55 in SW 1.2 mph 2.3 mph 79 % 0.00 in
05:56 19.6 °F 14.1 °F 30.55 in SW 0.9 mph 2.3 mph 79 % 0.00 in
06:01 19.5 °F 14.0 °F 30.55 in SW 0.8 mph 2.3 mph 79 % 0.00 in
06:06 19.4 °F 13.9 °F 30.55 in SW 0.8 mph 2.3 mph 79 % 0.00 in
06:11 19.4 °F 14.2 °F 30.55 in SW 1.6 mph 2.3 mph 80 % 0.00 in
06:16 19.3 °F 14.1 °F 30.55 in SW 1.1 mph 2.3 mph 80 % 0.00 in
06:21 19.2 °F 14.0 °F 30.55 in SW 1.8 mph 2.3 mph 80 % 0.00 in
06:26 19.2 °F 14.0 °F 30.55 in SW 1.1 mph 2.3 mph 80 % 0.00 in
06:32 19.1 °F 13.9 °F 30.55 in SW 0.7 mph 2.3 mph 80 % 0.00 in
06:37 19.1 °F 14.2 °F 30.55 in SW 1.2 mph 2.3 mph 81 % 0.00 in
06:42 19.1 °F 13.9 °F 30.55 in SW 1.3 mph 2.3 mph 80 % 0.00 in
06:47 19.1 °F 13.9 °F 30.55 in SW 1.1 mph 2.3 mph 80 % 0.00 in
06:52 19.2 °F 14.3 °F 30.55 in SW 1.8 mph 3.5 mph 81 % 0.00 in
06:57 19.1 °F 14.2 °F 30.55 in SW 1.5 mph 3.5 mph 81 % 0.00 in
07:02 19.1 °F 14.2 °F 30.55 in SW 1.3 mph 3.5 mph 81 % 0.00 in
07:07 19.1 °F 14.2 °F 30.55 in SW 2.5 mph 3.5 mph 81 % 0.00 in
07:12 19.1 °F 14.2 °F 30.55 in SW 1.3 mph 3.5 mph 81 % 0.00 in
07:17 19.1 °F 14.5 °F 30.55 in SW 0.9 mph 3.5 mph 82 % 0.00 in
07:23 19.2 °F 14.6 °F 30.55 in SW 1.6 mph 2.3 mph 82 % 0.00 in
07:28 19.2 °F 14.6 °F 30.55 in SW 1.0 mph 3.5 mph 82 % 0.00 in
07:33 19.2 °F 14.6 °F 30.55 in SW 0.6 mph 2.3 mph 82 % 0.00 in
07:38 19.2 °F 14.6 °F 30.55 in Calm     82 % 0.00 in
07:43 19.2 °F 14.6 °F 30.56 in SW 0.3 mph 2.3 mph 82 % 0.00 in
07:48 19.3 °F 14.7 °F 30.56 in SW 0.2 mph 1.2 mph 82 % 0.00 in
07:53 19.4 °F 15.1 °F 30.56 in SSW 1.1 mph 3.5 mph 83 % 0.00 in
07:58 19.6 °F 15.3 °F 30.56 in SW 0.4 mph 2.3 mph 83 % 0.00 in
08:03 19.9 °F 15.6 °F 30.56 in SW 1.1 mph 2.3 mph 83 % 0.00 in
08:08 20.1 °F 15.5 °F 30.56 in SSW 1.6 mph 3.5 mph 82 % 0.00 in
08:14 20.4 °F 15.8 °F 30.56 in SSW 0.5 mph 3.5 mph 82 % 0.00 in
08:19 20.7 °F 16.1 °F 30.56 in SW 0.7 mph 2.3 mph 82 % 0.00 in
08:24 21.1 °F 16.2 °F 30.56 in SW 2.0 mph 3.5 mph 81 % 0.00 in
08:29 21.3 °F 16.1 °F 30.56 in SSW 2.6 mph 5.8 mph 80 % 0.00 in
08:34 21.8 °F 15.7 °F 30.56 in SW 3.5 mph 5.8 mph 77 % 0.00 in
08:39 22.4 °F 15.7 °F 30.56 in SSW 3.3 mph 5.8 mph 75 % 0.00 in
08:44 23.0 °F 15.6 °F 30.56 in WSW 4.4 mph 6.9 mph 73 % 0.00 in
08:49 23.8 °F 16.1 °F 30.56 in SSW 6.1 mph 8.1 mph 72 % 0.00 in
08:54 24.6 °F 16.2 °F 30.56 in SW 4.2 mph 8.1 mph 70 % 0.00 in
08:59 25.2 °F 16.5 °F 30.56 in SSW 6.0 mph 7.0 mph 69 % 0.00 in
09:05 25.7 °F 16.3 °F 30.56 in SSW 4.0 mph 6.9 mph 67 % 0.00 in
09:10 26.2 °F 16.4 °F 30.57 in SSW 2.7 mph 5.8 mph 66 % 0.00 in
09:15 26.6 °F 16.4 °F 30.56 in SSW 2.3 mph 6.0 mph 65 % 0.00 in
09:20 27.1 °F 16.5 °F 30.56 in SSW 2.3 mph 4.0 mph 64 % 0.00 in
09:25 27.5 °F 16.5 °F 30.56 in SSW 3.7 mph 6.9 mph 63 % 0.00 in
09:30 28.3 °F 16.6 °F 30.56 in SW 4.2 mph 6.9 mph 61 % 0.00 in
09:35 29.0 °F 16.1 °F 30.56 in WNW 4.0 mph 8.1 mph 58 % 0.00 in
09:45 30.3 °F 15.2 °F 30.56 in SW 5.9 mph 8.1 mph 53 % 0.00 in
09:50 30.8 °F 14.8 °F 30.56 in WSW 4.9 mph 6.0 mph 51 % 0.00 in
09:55 31.5 °F 13.6 °F 30.56 in West 4.8 mph 11.5 mph 47 % 0.00 in
10:00 32.1 °F 14.1 °F 30.56 in SW 2.7 mph 9.0 mph 47 % 0.00 in
10:06 32.7 °F 13.7 °F 30.56 in SSW 5.0 mph 6.9 mph 45 % 0.00 in
10:11 33.2 °F 13.6 °F 30.56 in SW 4.9 mph 8.1 mph 44 % 0.00 in
10:16 33.7 °F 13.0 °F 30.56 in WSW 4.1 mph 8.1 mph 42 % 0.00 in
10:21 34.2 °F 12.9 °F 30.56 in WSW 4.9 mph 6.9 mph 41 % 0.00 in
10:26 34.5 °F 13.2 °F 30.56 in SSW 3.2 mph 4.0 mph 41 % 0.00 in
10:31 35.0 °F 13.1 °F 30.55 in WSW 2.4 mph 5.0 mph 40 % 0.00 in
10:36 35.5 °F 12.4 °F 30.55 in SSW 1.2 mph 4.6 mph 38 % 0.00 in
10:41 35.9 °F 11.5 °F 30.55 in WSW 4.5 mph 8.1 mph 36 % 0.00 in
10:46 36.1 °F 10.4 °F 30.55 in West 5.7 mph 9.2 mph 34 % 0.00 in
10:52 36.3 °F 10.6 °F 30.55 in WNW 0.7 mph 4.6 mph 34 % 0.00 in
10:57 36.4 °F 10.0 °F 30.55 in WSW 3.3 mph 6.9 mph 33 % 0.00 in
11:02 36.6 °F 10.8 °F 30.54 in WSW 2.0 mph 8.1 mph 34 % 0.00 in
11:07 36.8 °F 10.3 °F 30.54 in West 2.1 mph 6.0 mph 33 % 0.00 in
11:12 36.9 °F 10.4 °F 30.54 in West 3.6 mph 5.8 mph 33 % 0.00 in
11:17 37.0 °F 11.2 °F 30.53 in WSW 5.8 mph 10.4 mph 34 % 0.00 in
11:22 37.0 °F 11.2 °F 30.53 in WSW 4.4 mph 6.9 mph 34 % 0.00 in
11:27 37.1 °F 11.3 °F 30.52 in WSW 2.9 mph 6.0 mph 34 % 0.00 in
11:32 37.2 °F 11.4 °F 30.52 in West 0.8 mph 2.3 mph 34 % 0.00 in
11:37 37.4 °F 10.9 °F 30.52 in WNW 3.8 mph 3.8 mph 33 % 0.00 in
11:43 37.5 °F 11.0 °F 30.52 in SW 2.8 mph 4.6 mph 33 % 0.00 in
11:48 37.7 °F 11.8 °F 30.51 in WSW 2.1 mph 5.8 mph 34 % 0.00 in
11:58 37.8 °F 11.9 °F 30.50 in WNW 3.5 mph 5.8 mph 34 % 0.00 in
12:03 37.8 °F 12.6 °F 30.50 in WSW 2.3 mph 4.6 mph 35 % 0.00 in
12:08 37.9 °F 12.6 °F 30.50 in WNW 3.7 mph 6.9 mph 35 % 0.00 in
12:13 37.9 °F 12.0 °F 30.50 in West 4.8 mph 6.9 mph 34 % 0.00 in
12:18 38.1 °F 10.8 °F 30.49 in WNW 5.7 mph 9.2 mph 32 % 0.00 in
12:23 38.2 °F 10.9 °F 30.49 in NNW 3.4 mph 4.6 mph 32 % 0.00 in
12:28 38.4 °F 11.8 °F 30.49 in West 2.3 mph 6.9 mph 33 % 0.00 in
12:34 38.8 °F 11.4 °F 30.49 in WSW 5.1 mph 5.1 mph 32 % 0.00 in
12:39 39.2 °F 11.0 °F 30.48 in WNW 2.9 mph 5.8 mph 31 % 0.00 in
12:44 39.6 °F 10.7 °F 30.48 in WSW 1.4 mph 4.6 mph 30 % 0.00 in
12:49 39.8 °F 9.3 °F 30.48 in West 4.1 mph 8.1 mph 28 % 0.00 in
12:54 40.0 °F 9.5 °F 30.47 in West 4.0 mph 6.9 mph 28 % 0.00 in
12:59 40.0 °F 9.5 °F 30.47 in West 3.4 mph 5.8 mph 28 % 0.00 in
13:04 40.0 °F 9.5 °F 30.47 in WNW 2.8 mph 5.0 mph 28 % 0.00 in
13:09 40.1 °F 10.3 °F 30.46 in WNW 4.2 mph 6.9 mph 29 % 0.00 in
13:14 40.2 °F 9.6 °F 30.46 in WNW 3.6 mph 6.9 mph 28 % 0.00 in
13:19 40.2 °F 9.6 °F 30.46 in WSW 3.5 mph 7.0 mph 28 % 0.00 in
13:25 40.1 °F 10.3 °F 30.46 in WNW 3.1 mph 5.0 mph 29 % 0.00 in
13:30 40.2 °F 10.4 °F 30.46 in SW 2.5 mph 5.8 mph 29 % 0.00 in
13:35 40.3 °F 10.5 °F 30.45 in West 6.0 mph 9.0 mph 29 % 0.00 in
13:40 40.5 °F 9.9 °F 30.45 in WSW 0.5 mph 4.0 mph 28 % 0.00 in
13:45 40.6 °F 8.3 °F 30.44 in WNW 4.3 mph 6.9 mph 26 % 0.00 in
13:50 40.7 °F 9.3 °F 30.44 in West 0.7 mph 3.0 mph 27 % 0.00 in
13:55 40.9 °F 9.4 °F 30.44 in WSW 2.9 mph 5.8 mph 27 % 0.00 in
14:00 41.1 °F 9.6 °F 30.43 in WSW 5.1 mph 6.9 mph 27 % 0.00 in
14:05 41.2 °F 9.7 °F 30.43 in WSW 2.2 mph 4.0 mph 27 % 0.00 in
14:10 41.3 °F 10.6 °F 30.43 in SSW 0.6 mph 3.5 mph 28 % 0.00 in
14:16 41.4 °F 10.7 °F 30.43 in WSW 1.5 mph 4.6 mph 28 % 0.00 in
14:21 41.4 °F 9.0 °F 30.43 in West 0.9 mph 2.3 mph 26 % 0.00 in
14:26 41.4 °F 9.9 °F 30.43 in WSW 2.8 mph 4.6 mph 27 % 0.00 in
14:31 41.3 °F 8.9 °F 30.42 in West 1.3 mph 3.5 mph 26 % 0.00 in
14:36 41.3 °F 8.9 °F 30.43 in West 3.8 mph 4.6 mph 26 % 0.00 in
14:41 41.1 °F 7.0 °F 30.43 in WNW 1.2 mph 4.6 mph 24 % 0.00 in
14:46 41.0 °F 7.8 °F 30.43 in WSW 2.8 mph 5.0 mph 25 % 0.00 in
14:51 41.0 °F 7.8 °F 30.42 in South 2.4 mph 5.8 mph 25 % 0.00 in
14:56 40.9 °F 6.8 °F 30.43 in SSW 4.4 mph 6.9 mph 24 % 0.00 in
15:01 40.9 °F 5.9 °F 30.42 in SW 3.2 mph 4.6 mph 23 % 0.00 in
15:07 40.9 °F 5.9 °F 30.42 in SSW 2.7 mph 5.0 mph 23 % 0.00 in
15:12 41.0 °F 6.0 °F 30.42 in South 1.1 mph 2.3 mph 23 % 0.00 in
15:17 41.0 °F 5.0 °F 30.42 in SSW 3.7 mph 5.8 mph 22 % 0.00 in
15:22 41.0 °F 5.0 °F 30.42 in SSW 1.1 mph 2.3 mph 22 % 0.00 in
15:27 40.9 °F 4.9 °F 30.42 in SSW 3.9 mph 5.8 mph 22 % 0.00 in
15:32 40.9 °F 3.9 °F 30.42 in SSW 2.7 mph 6.9 mph 21 % 0.00 in
15:37 40.8 °F 4.8 °F 30.42 in SSW 1.9 mph 5.8 mph 22 % 0.00 in
15:42 40.7 °F 5.7 °F 30.42 in South 2.4 mph 4.0 mph 23 % 0.00 in
15:47 40.7 °F 5.7 °F 30.42 in SSW 0.6 mph 3.5 mph 23 % 0.00 in
15:52 40.5 °F 6.5 °F 30.42 in SSW 1.4 mph 3.5 mph 24 % 0.00 in
15:58 40.4 °F 6.4 °F 30.42 in South 2.2 mph 2.3 mph 24 % 0.00 in
16:03 40.2 °F 8.0 °F 30.42 in South 4.1 mph 6.9 mph 26 % 0.00 in
16:08 40.0 °F 11.0 °F 30.42 in South 3.8 mph 6.9 mph 30 % 0.00 in
16:13 39.7 °F 12.2 °F 30.42 in SSW 1.5 mph 3.5 mph 32 % 0.00 in
16:18 39.4 °F 13.3 °F 30.42 in South 2.7 mph 6.0 mph 34 % 0.00 in
16:23 39.1 °F 14.4 °F 30.42 in South 4.3 mph 5.8 mph 36 % 0.00 in
16:28 38.8 °F 14.7 °F 30.42 in SSW 0.8 mph 2.3 mph 37 % 0.00 in
16:33 38.4 °F 15.0 °F 30.42 in SSW 3.6 mph 5.8 mph 38 % 0.00 in
16:38 38.1 °F 15.3 °F 30.42 in SW 2.7 mph 6.0 mph 39 % 0.00 in
16:49 37.5 °F 15.3 °F 30.42 in SSW 1.7 mph 4.0 mph 40 % 0.00 in
16:54 37.1 °F 15.0 °F 30.42 in South 2.6 mph 5.8 mph 40 % 0.00 in
16:59 36.9 °F 14.8 °F 30.41 in SW 1.8 mph 3.5 mph 40 % 0.00 in
17:04 36.6 °F 14.5 °F 30.41 in SW 1.1 mph 2.3 mph 40 % 0.00 in
17:09 36.3 °F 14.3 °F 30.42 in SSW 2.0 mph 3.5 mph 40 % 0.00 in
17:14 36.1 °F 14.6 °F 30.42 in Calm     41 % 0.00 in
17:19 35.9 °F 15.0 °F 30.42 in SSW 0.8 mph 2.0 mph 42 % 0.00 in
17:24 35.6 °F 15.3 °F 30.42 in SSW 1.0 mph 2.3 mph 43 % 0.00 in
17:29 35.3 °F 15.5 °F 30.42 in SSW 0.6 mph 2.3 mph 44 % 0.00 in
17:34 35.0 °F 15.3 °F 30.41 in SSW 1.4 mph 2.3 mph 44 % 0.00 in
17:40 34.7 °F 15.5 °F 30.42 in SSW 0.8 mph 2.3 mph 45 % 0.00 in
17:45 34.5 °F 15.3 °F 30.42 in SSW 1.3 mph 3.5 mph 45 % 0.00 in
17:50 34.3 °F 15.6 °F 30.42 in SSW 1.0 mph 1.2 mph 46 % 0.00 in
17:55 34.0 °F 15.9 °F 30.42 in Calm     47 % 0.00 in
18:00 33.7 °F 16.5 °F 30.42 in Calm     49 % 0.00 in
18:05 33.5 °F 16.4 °F 30.42 in SW 0.2 mph 1.2 mph 49 % 0.00 in
18:10 33.2 °F 16.5 °F 30.42 in SW 0.6 mph 1.2 mph 50 % 0.00 in
18:15 33.0 °F 16.8 °F 30.42 in SW 1.3 mph 3.0 mph 51 % 0.00 in
18:20 32.8 °F 17.1 °F 30.42 in SW 1.1 mph 2.3 mph 52 % 0.00 in
18:25 32.5 °F 17.2 °F 30.41 in SW 0.3 mph 1.2 mph 53 % 0.00 in
18:31 32.3 °F 17.5 °F 30.41 in SW 0.4 mph 1.2 mph 54 % 0.00 in
18:36 32.1 °F 17.3 °F 30.41 in Calm   1.2 mph 54 % 0.00 in
18:41 32.0 °F 17.6 °F 30.41 in SW 0.4 mph 2.3 mph 55 % 0.00 in
18:46 31.9 °F 17.5 °F 30.41 in SW 0.5 mph 2.3 mph 55 % 0.00 in
18:51 31.7 °F 17.4 °F 30.41 in SW 0.8 mph 2.3 mph 55 % 0.00 in
18:56 31.6 °F 17.7 °F 30.41 in SW 0.1 mph 1.2 mph 56 % 0.00 in
19:01 31.5 °F 18.0 °F 30.41 in SW 1.5 mph 3.5 mph 57 % 0.00 in
19:06 31.4 °F 18.3 °F 30.41 in SSW 1.7 mph 3.0 mph 58 % 0.00 in
19:11 31.3 °F 18.2 °F 30.41 in SSW 2.2 mph 3.5 mph 58 % 0.00 in
19:16 31.2 °F 18.5 °F 30.41 in SW 2.3 mph 4.0 mph 59 % 0.00 in
19:22 31.2 °F 18.5 °F 30.42 in SSW 2.3 mph 3.5 mph 59 % 0.00 in
19:27 31.2 °F 18.5 °F 30.42 in SW 2.9 mph 4.6 mph 59 % 0.00 in
19:32 31.2 °F 18.9 °F 30.42 in SW 2.0 mph 5.8 mph 60 % 0.00 in
19:37 31.3 °F 19.0 °F 30.42 in SSW 1.1 mph 2.3 mph 60 % 0.00 in
19:42 31.4 °F 19.1 °F 30.42 in SSW 2.3 mph 4.6 mph 60 % 0.00 in
19:47 31.5 °F 19.2 °F 30.42 in SSW 3.3 mph 6.0 mph 60 % 0.00 in
19:52 31.6 °F 19.3 °F 30.42 in SW 3.4 mph 4.6 mph 60 % 0.00 in
19:57 31.7 °F 18.6 °F 30.42 in SW 3.5 mph 6.9 mph 58 % 0.00 in
20:02 31.9 °F 18.4 °F 30.42 in SW 4.7 mph 8.1 mph 57 % 0.00 in
20:07 32.1 °F 18.6 °F 30.42 in SW 3.5 mph 8.1 mph 57 % 0.00 in
20:13 32.2 °F 18.2 °F 30.41 in SW 2.6 mph 3.0 mph 56 % 0.00 in
20:18 32.4 °F 18.0 °F 30.42 in WSW 3.2 mph 4.0 mph 55 % 0.00 in
20:23 32.5 °F 17.7 °F 30.41 in WSW 2.6 mph 5.8 mph 54 % 0.00 in
20:28 32.6 °F 17.8 °F 30.41 in WSW 4.9 mph 11.5 mph 54 % 0.00 in
20:33 32.7 °F 17.9 °F 30.41 in WSW 3.2 mph 4.6 mph 54 % 0.00 in
20:38 32.8 °F 17.5 °F 30.42 in SW 0.8 mph 3.5 mph 53 % 0.00 in
20:43 32.8 °F 17.5 °F 30.42 in SW 1.1 mph 2.3 mph 53 % 0.00 in
20:48 32.8 °F 17.5 °F 30.42 in SSW 2.0 mph 3.5 mph 53 % 0.00 in
20:53 32.7 °F 17.4 °F 30.42 in SSW 0.8 mph 2.3 mph 53 % 0.00 in
21:04 32.4 °F 17.2 °F 30.42 in SW 3.6 mph 6.0 mph 53 % 0.00 in
21:09 32.3 °F 17.5 °F 30.42 in SSW 2.9 mph 4.6 mph 54 % 0.00 in
21:14 32.1 °F 17.3 °F 30.42 in SW 1.7 mph 4.6 mph 54 % 0.00 in
21:19 32.0 °F 17.2 °F 30.42 in SSW 2.5 mph 3.5 mph 54 % 0.00 in
21:24 32.0 °F 17.2 °F 30.42 in SW 1.1 mph 2.3 mph 54 % 0.00 in
21:29 31.9 °F 17.1 °F 30.41 in WSW 0.7 mph 3.0 mph 54 % 0.00 in
21:34 31.9 °F 17.1 °F 30.41 in SSW 2.6 mph 5.0 mph 54 % 0.00 in
21:39 31.8 °F 17.0 °F 30.41 in West 3.1 mph 3.5 mph 54 % 0.00 in
21:44 31.8 °F 17.5 °F 30.41 in WSW 1.7 mph 3.5 mph 55 % 0.00 in
21:49 31.8 °F 17.5 °F 30.41 in SW 0.4 mph 2.3 mph 55 % 0.00 in
21:55 31.7 °F 17.4 °F 30.40 in SW 0.6 mph 2.0 mph 55 % 0.00 in
22:00 31.7 °F 17.4 °F 30.40 in WNW 0.4 mph 2.3 mph 55 % 0.00 in
22:05 31.6 °F 17.3 °F 30.40 in SSW 0.3 mph 1.2 mph 55 % 0.00 in
22:10 31.5 °F 17.2 °F 30.40 in SSW 0.1 mph 1.2 mph 55 % 0.00 in
22:15 31.4 °F 17.1 °F 30.40 in West 0.5 mph 2.3 mph 55 % 0.00 in
22:20 31.3 °F 16.6 °F 30.40 in SW 0.7 mph 2.3 mph 54 % 0.00 in
22:25 31.1 °F 16.8 °F 30.40 in SSW 0.5 mph 3.5 mph 55 % 0.00 in
22:30 31.0 °F 16.3 °F 30.40 in WSW 1.4 mph 2.3 mph 54 % 0.00 in
22:35 30.9 °F 16.2 °F 30.40 in Calm     54 % 0.00 in
22:40 30.8 °F 16.1 °F 30.40 in WSW 0.5 mph 2.3 mph 54 % 0.00 in
22:46 30.7 °F 16.4 °F 30.40 in WSW 0.5 mph 2.3 mph 55 % 0.00 in
22:51 30.6 °F 16.3 °F 30.40 in WSW 1.6 mph 5.8 mph 55 % 0.00 in
22:56 30.6 °F 15.9 °F 30.39 in SSW 2.2 mph 4.6 mph 54 % 0.00 in
23:01 30.6 °F 16.3 °F 30.39 in SSW 1.6 mph 3.5 mph 55 % 0.00 in
23:06 30.5 °F 16.2 °F 30.39 in SSW 1.1 mph 3.0 mph 55 % 0.00 in
23:11 30.5 °F 16.2 °F 30.39 in SSW 1.3 mph 2.3 mph 55 % 0.00 in
23:16 30.4 °F 15.7 °F 30.39 in SW 1.2 mph 3.0 mph 54 % 0.00 in
23:21 30.4 °F 15.7 °F 30.39 in SW 0.2 mph 2.3 mph 54 % 0.00 in
23:26 30.3 °F 15.2 °F 30.39 in SW 0.6 mph 2.3 mph 53 % 0.00 in
23:31 30.2 °F 16.0 °F 30.39 in SW 0.2 mph 1.2 mph 55 % 0.00 in
23:37 30.1 °F 15.0 °F 30.39 in WSW 1.5 mph 3.5 mph 53 % 0.00 in
23:42 30.1 °F 15.0 °F 30.39 in WSW 1.2 mph 2.3 mph 53 % 0.00 in
23:47 30.0 °F 14.9 °F 30.39 in SW 3.5 mph 4.6 mph 53 % 0.00 in
23:52 29.9 °F 15.3 °F 30.39 in SW 0.9 mph 2.3 mph 54 % 0.00 in
23:57 29.9 °F 15.3 °F 30.38 in SW 1.5 mph 3.5 mph 54 % 0.00 in
Crab Meadow Weather
Compliments of Weather Underground - 3 mb

Script developed by  Jim McMurry - jmcmurry@mwt.net Adapted for the template by  Wim van der Kuil - Leuven-Template.eu

Weather Terms: Heat Advisory - Maximum heat index of 105 to 110°F with a minimum of 75°F for two or more consecutive days.